User: anonymous   Login
Location: Unspecified
(0.0000°N, 0.0000°E)
Time: 06:08:45
(UTC+00:00)
Language:

RAX-2 - Orbit

View from above orbital plane
View from above orbital plane
View from above satellite
View from above satellite

Ground track
Ground track

The orbit data is extracted from the following two-line orbital elements,

1 37853U 11061D   15087.06820817  .00006518  00000-0  41035-3 0  9994
2 37853 101.7138 258.3171 0200566 312.4905 157.7225 14.94690571184984
Epoch (UTC): 28 March 2015 01:38:13
Eccentricity: 0.0200566
inclination: 101.7138°
perigee height: 444 km
apogee height: 723 km
right ascension of ascending node: 258.3171°
argument of perigee: 312.4905°
revolutions per day: 14.94690571
mean anomaly at epoch: 157.7225°
orbit number at epoch: 18498

The dashed part of the orbit path shows where the satellite is in the earth's shadow,  

DLR